Regional Weather Roundup
Issued by NWS

Home | Current Version | Previous Version | Graphics & Text | Print | Product List | Glossary On
Versions: 1 2 3 4 5 6 7 8 9 10 11 12 13 14 15 16 17 18 19 20 21 22 23 24 25 26 27 28 29 30 31 32 33 34 35 36 37 38 39 40 41 42 43 44 45 46 47 48 49 50
000
ASUS45 KCYS 050010
RWRWY

WYOMING REGIONAL WEATHER ROUNDUP
NATIONAL WEATHER SERVICE CHEYENNE WY
600 PM MDT TUE AUG 04 2015

NOTE:  "FAIR" INDICATES FEW OR NO CLOUDS BELOW 12,000 FEET
WITH NO SIGNIFICANT WEATHER AND/OR OBSTRUCTIONS TO VISIBILITY.

WYZ001-050100-
YELLOWSTONE NATIONAL PARK

CITY           SKY/WX    TMP DP  RH WIND       PRES   REMARKS
LK YELLOWSTONE   N/A     60  40  47 W17G24    30.31R
6HR MIN TEMP:  58; 6HR MAX TEMP:  71;

W YELLOWSTONE  NOT AVBL

$$
WYZ002>013-054>058-071-098>099-050100-
NORTHERN WYOMING

CITY           SKY/WX    TMP DP  RH WIND       PRES   REMARKS
JACKSON        SUNNY     75  39  27 SW10      30.15F
CODY           FAIR      72  54  53 N9        30.07F
GREYBULL       FAIR      82  48  30 NW10      29.98R
6HR MIN TEMP:  69; 6HR MAX TEMP:  82; 6HR PCP: TRACE;

WORLAND        FAIR      81  48  31 NW6       29.99S
6HR MIN TEMP:  75; 6HR MAX TEMP:  82; 6HR PCP: TRACE;

SHERIDAN       FAIR      77  53  43 NW10      29.97F
6HR MIN TEMP:  67; 6HR MAX TEMP:  82; 6HR PCP: TRACE;

BUFFALO        FAIR      72  56  57 NE7       30.03F
6HR MIN TEMP:  63; 6HR MAX TEMP:  79; 6HR PCP:  0.02;

GILLETTE       LGT RAIN  68  59  73 N12       30.02R
6HR MIN TEMP:  64; 6HR MAX TEMP:  84; 6HR PCP:  0.13;

HULETT         MOCLDY    72  52  49 W15G22    30.01R
NEWCASTLE      LGT RAIN  73  54  49 SW15G25   30.02R

$$
WYZ014>020-022>026-101>103-050100-
CENTRAL WYOMING

CITY           SKY/WX    TMP DP  RH WIND       PRES   REMARKS
BIG PINEY      FAIR      70  44  39 W9        30.22R
6HR MIN TEMP:  70; 6HR MAX TEMP:  79;

PINEDALE       FAIR      73  34  23 NW10      30.22S
DUBOIS         FAIR      73  34  23 NW15G26   30.18S
LANDER         FAIR      82  46  28 E5        30.04F
6HR MIN TEMP:  73; 6HR MAX TEMP:  84;

RIVERTON       FAIR      80  47  31 NE7       30.06R
6HR MIN TEMP:  77; 6HR MAX TEMP:  82;

CASPER         FAIR      78  51  38 N6        30.06S
6HR MIN TEMP:  69; 6HR MAX TEMP:  81; 6HR PCP: TRACE;

DOUGLAS        PTSUNNY   73  54  51 NW6       30.06S
6HR MIN TEMP:  71; 6HR MAX TEMP:  83; 6HR PCP: TRACE;


$$
WYZ021-027>030-104>119-050100-
SOUTHERN WYOMING

CITY           SKY/WX    TMP DP  RH WIND       PRES   REMARKS
EVANSTON       FAIR      79  39  23 W9        30.22F
6HR MIN TEMP:  70; 6HR MAX TEMP:  81;

KEMMERER       FAIR      73  36  25 W8        30.23F
FORT BRIDGER   CLEAR     81  32  17 W17       30.24F
ROCK SPRINGS   FAIR      78  35  21 W16G26    30.18F
6HR MIN TEMP:  71; 6HR MAX TEMP:  80;

DIXON          FAIR      83  29  14 W14G26    30.21F
RAWLINS        FAIR      80  36  20 W21G26    30.17F
6HR MIN TEMP:  69; 6HR MAX TEMP:  81;

SARATOGA       FAIR      77  36  22 W16G25    30.21F
LARAMIE        FAIR      75  42  30 NW22G31   30.19S
6HR MIN TEMP:  63; 6HR MAX TEMP:  77;

CHEYENNE       FAIR      76  50  40 N13       30.11S
6HR MIN TEMP:  71; 6HR MAX TEMP:  82;

TORRINGTON     FAIR      71  59  65 E5        30.01S
6HR MIN TEMP:  67; 6HR MAX TEMP:  86; 6HR PCP: TRACE;

PINE BLUFFS    FAIR      75  52  43 N15       30.07S

$$



USA.gov is the U.S. government's official web portal to all federal, state and local government web resources and services.